TimeEST,TemperatureF,Dew PointF,Humidity,Sea Level PressureIn,VisibilityMPH,Wind Direction,Wind SpeedMPH,Gust SpeedMPH,PrecipitationIn,Events,Conditions,WindDirDegrees,DateUTC
12:15 AM,37.6,27.9,68,30.22,10.0,West,8.1,-,N/A,,Clear,270,2013-11-08 05:15:00
12:35 AM,37.6,27.9,68,30.23,10.0,West,8.1,-,N/A,,Clear,280,2013-11-08 05:35:00
12:55 AM,38.1,29.3,71,30.23,10.0,WNW,8.1,-,N/A,,Clear,290,2013-11-08 05:55:00
1:15 AM,37.6,29.5,73,30.24,10.0,WNW,5.8,-,N/A,,Clear,300,2013-11-08 06:15:00
1:35 AM,37.6,30.0,74,30.25,10.0,WNW,5.8,-,N/A,,Clear,300,2013-11-08 06:35:00
1:55 AM,35.6,29.1,77,30.25,10.0,WNW,4.6,-,N/A,,Clear,290,2013-11-08 06:55:00
2:15 AM,37.6,30.7,76,30.26,10.0,WNW,12.7,17.3,N/A,,Scattered Clouds,300,2013-11-08 07:15:00
2:35 AM,37.6,30.2,75,30.27,10.0,WNW,13.8,-,N/A,,Clear,300,2013-11-08 07:35:00
2:55 AM,35.1,28.4,77,30.27,10.0,WNW,8.1,-,N/A,,Clear,300,2013-11-08 07:55:00
3:15 AM,35.1,28.9,78,30.28,10.0,WNW,11.5,17.3,N/A,,Clear,290,2013-11-08 08:15:00
3:35 AM,35.1,29.3,80,30.28,10.0,West,6.9,-,N/A,,Clear,280,2013-11-08 08:35:00
3:55 AM,33.3,28.6,83,30.28,10.0,West,5.8,-,N/A,,Clear,270,2013-11-08 08:55:00
4:15 AM,32.5,27.7,82,30.28,7.0,WNW,3.5,-,N/A,,Clear,290,2013-11-08 09:15:00
4:35 AM,32.5,28.2,84,30.30,7.0,West,6.9,-,N/A,,Clear,270,2013-11-08 09:35:00
4:55 AM,32.5,28.2,84,30.30,7.0,West,9.2,-,N/A,,Clear,260,2013-11-08 09:55:00
5:15 AM,32.5,28.2,84,30.30,7.0,West,6.9,-,N/A,,Clear,270,2013-11-08 10:15:00
5:35 AM,32.5,28.2,84,30.30,7.0,West,6.9,-,N/A,,Clear,270,2013-11-08 10:35:00
5:55 AM,32.5,28.4,85,30.30,7.0,West,4.6,-,N/A,,Clear,260,2013-11-08 10:55:00
6:15 AM,32.5,28.2,84,30.31,10.0,Calm,Calm,-,N/A,,Clear,0,2013-11-08 11:15:00
6:35 AM,30.2,25.7,83,30.31,7.0,SW,4.6,-,N/A,,Clear,220,2013-11-08 11:35:00
6:55 AM,30.2,26.1,85,30.32,7.0,SW,3.5,-,N/A,,Clear,230,2013-11-08 11:55:00
7:15 AM,29.5,25.3,85,30.33,7.0,SSW,4.6,-,N/A,,Clear,210,2013-11-08 12:15:00
7:35 AM,30.2,26.4,86,30.34,5.0,SSW,4.6,-,N/A,,Clear,210,2013-11-08 12:35:00
7:55 AM,32.5,28.8,86,30.34,5.0,SSW,4.6,-,N/A,,Clear,200,2013-11-08 12:55:00
8:15 AM,32.5,28.4,85,30.35,5.0,SSW,4.6,-,N/A,,Haze,200,2013-11-08 13:15:00
8:35 AM,34.0,29.5,84,30.37,7.0,SW,3.5,-,N/A,,Clear,230,2013-11-08 13:35:00
8:55 AM,35.1,29.1,79,30.37,10.0,West,5.8,-,N/A,,Clear,270,2013-11-08 13:55:00
9:15 AM,37.6,30.7,76,30.37,10.0,NW,8.1,-,N/A,,Clear,310,2013-11-08 14:15:00
9:35 AM,37.6,29.8,74,30.37,10.0,NW,8.1,-,N/A,,Clear,310,2013-11-08 14:35:00
9:55 AM,38.8,29.5,69,30.37,10.0,West,5.8,-,N/A,,Clear,280,2013-11-08 14:55:00
10:15 AM,40.6,29.7,65,30.37,10.0,WSW,4.6,-,N/A,,Clear,250,2013-11-08 15:15:00
10:35 AM,41.2,29.1,62,30.38,10.0,WSW,4.6,-,N/A,,Clear,250,2013-11-08 15:35:00
10:55 AM,42.8,28.2,56,30.38,10.0,West,9.2,-,N/A,,Clear,270,2013-11-08 15:55:00
11:15 AM,45.1,29.7,55,30.39,10.0,NNW,6.9,-,N/A,,Clear,340,2013-11-08 16:15:00
11:35 AM,46.8,30.4,53,30.38,10.0,West,4.6,-,N/A,,Clear,280,2013-11-08 16:35:00
11:55 AM,47.7,29.8,50,30.37,10.0,WNW,5.8,-,N/A,,Clear,290,2013-11-08 16:55:00
12:15 PM,47.7,28.6,48,30.36,10.0,North,8.1,-,N/A,,Clear,360,2013-11-08 17:15:00
12:35 PM,47.7,27.7,46,30.35,10.0,WSW,6.9,-,N/A,,Scattered Clouds,250,2013-11-08 17:35:00
12:55 PM,47.7,27.3,45,30.34,10.0,WNW,4.6,-,N/A,,Scattered Clouds,300,2013-11-08 17:55:00
1:15 PM,47.7,27.0,45,30.33,10.0,NW,8.1,-,N/A,,Clear,320,2013-11-08 18:15:00
1:35 PM,47.7,25.9,43,30.33,10.0,WNW,8.1,-,N/A,,Scattered Clouds,300,2013-11-08 18:35:00
1:55 PM,47.8,25.3,41,30.33,10.0,West,5.8,-,N/A,,Scattered Clouds,260,2013-11-08 18:55:00
2:15 PM,48.9,26.1,41,30.32,10.0,WSW,9.2,-,N/A,,Mostly Cloudy,250,2013-11-08 19:15:00
2:35 PM,48.7,24.1,38,30.32,10.0,West,8.1,-,N/A,,Scattered Clouds,260,2013-11-08 19:35:00
2:55 PM,49.3,24.1,37,30.31,10.0,West,3.5,-,N/A,,Clear,260,2013-11-08 19:55:00
3:15 PM,49.1,23.2,36,30.31,10.0,WNW,5.8,-,N/A,,Clear,300,2013-11-08 20:15:00
3:35 PM,49.6,23.5,36,30.30,10.0,West,8.1,-,N/A,,Clear,260,2013-11-08 20:35:00
3:55 PM,49.5,22.8,35,30.30,10.0,WNW,5.8,-,N/A,,Clear,290,2013-11-08 20:55:00
4:15 PM,48.9,20.7,33,30.30,10.0,Calm,Calm,-,N/A,,Clear,0,2013-11-08 21:15:00
4:35 PM,47.8,22.1,36,30.30,10.0,Calm,Calm,-,N/A,,Clear,0,2013-11-08 21:35:00
4:55 PM,47.7,24.6,41,30.29,10.0,SW,4.6,-,N/A,,Clear,220,2013-11-08 21:55:00
5:15 PM,47.5,26.2,44,30.29,10.0,SW,5.8,-,N/A,,Clear,230,2013-11-08 22:15:00
5:35 PM,46.8,27.3,47,30.29,10.0,Calm,Calm,-,N/A,,Clear,0,2013-11-08 22:35:00
5:55 PM,41.7,27.1,56,30.29,10.0,Calm,Calm,-,N/A,,Clear,0,2013-11-08 22:55:00
6:15 PM,39.4,30.7,71,30.28,10.0,Calm,Calm,-,N/A,,Clear,0,2013-11-08 23:15:00
6:35 PM,37.6,30.6,76,30.29,10.0,Calm,Calm,-,N/A,,Clear,0,2013-11-08 23:35:00
6:55 PM,37.6,31.5,79,30.30,10.0,Calm,Calm,-,N/A,,Clear,0,2013-11-08 23:55:00
7:15 PM,37.6,31.1,77,30.28,10.0,Calm,Calm,-,N/A,,Clear,0,2013-11-09 00:15:00
7:35 PM,35.4,29.1,78,30.29,10.0,Calm,Calm,-,N/A,,Clear,0,2013-11-09 00:35:00
7:55 PM,35.1,30.0,82,30.28,10.0,Calm,Calm,-,N/A,,Clear,0,2013-11-09 00:55:00
8:15 PM,35.1,30.7,84,30.28,10.0,Calm,Calm,-,N/A,,Clear,0,2013-11-09 01:15:00
8:35 PM,35.1,30.2,82,30.28,10.0,Calm,Calm,-,N/A,,Clear,0,2013-11-09 01:35:00
8:55 PM,35.1,30.2,82,30.28,10.0,Calm,Calm,-,N/A,,Clear,0,2013-11-09 01:55:00
9:15 PM,35.1,30.4,83,30.28,10.0,Calm,Calm,-,N/A,,Clear,0,2013-11-09 02:15:00
9:35 PM,37.4,32.7,83,30.27,10.0,Calm,Calm,-,N/A,,Clear,0,2013-11-09 02:35:00
9:55 PM,37.6,32.0,80,30.27,10.0,Calm,Calm,-,N/A,,Clear,0,2013-11-09 02:55:00
10:15 PM,37.6,32.4,81,30.26,10.0,Calm,Calm,-,N/A,,Clear,0,2013-11-09 03:15:00
10:35 PM,36.0,31.3,83,30.26,10.0,Calm,Calm,-,N/A,,Clear,0,2013-11-09 03:35:00
10:55 PM,37.6,32.0,80,30.25,10.0,Calm,Calm,-,N/A,,Clear,0,2013-11-09 03:55:00
11:15 PM,37.6,32.9,83,30.25,10.0,Calm,Calm,-,N/A,,Clear,0,2013-11-09 04:15:00
11:35 PM,37.6,32.9,83,30.26,10.0,Calm,Calm,-,N/A,,Clear,0,2013-11-09 04:35:00
11:55 PM,37.6,32.5,82,30.25,10.0,Calm,Calm,-,N/A,,Clear,0,2013-11-09 04:55:00